STARLINK-38064

Last updated on Sun Aug 09 2026 00:02:04 GMT+0000 (Coordinated Universal Time)

1 69988U 26159P 26220.54405716 .00114399 00000+0 75725-3 0 9992 2 69988 97.2845 60.5293 0001403 58.5362 301.6040 15.75201178 5702
UTC large
Height (km)
Speed (km/s)
/
Latitude / Longitude
Inclination (degrees)
Orbital Period (minutes)
Azimuth
Elevation
Range (km)
Doppler Factor

Next 0 passes for location: London (51.5072 / 0.1276)

No passes found over London.
STARLINK-38064